Total_Precipitation_Accumulation
0.00 0.00 0.00 0.00 0.00 0.00 0.00 0.00 0.02 0.31 0.10 0.09 0.09 0.03 0.01 0.04 0.03 0.06 0.09 0.03 0.00 0.01 0.01 0.00 0.00 0.00 0.00 0.00 0.00 0.00 0.00 0.03 0.13 0.11 0.02 0.00 0.00 0.02 0.02 0.03 0.10 0.05 0.06 0.05
0.00 0.00 0.00 0.00 0.00 0.00 0.00 0.00 0.01 0.16 0.13 0.14 0.27 0.27 0.12 0.01 0.02 0.11 0.10 0.05 0.04 0.03 0.01 0.00 0.01 0.00 0.00 0.00 0.00 0.00 0.00 0.02 0.06 0.03 0.00 0.01 0.01 0.02 0.04 0.05 0.03 0.04 0.03 0.02
0.00 0.00 0.00 0.00 0.00 0.00 0.00 0.00 0.00 0.01 0.06 0.19 0.21 0.30 0.72 0.11 0.03 0.06 0.09 0.05 0.04 0.01 0.01 0.01 0.02 0.01 0.00 0.00 0.00 0.00 0.01 0.00 0.01 0.00 0.00 0.02 0.03 0.03 0.06 0.07 0.01 0.03 0.00 0.01
0.00 0.00 0.00 0.00 0.00 0.00 0.00 0.00 0.00 0.01 0.01 0.05 0.07 0.14 0.48 0.24 0.08 0.01 0.03 0.02 0.02 0.03 0.01 0.01 0.02 0.02 0.01 0.01 0.00 0.01 0.02 0.00 0.00 0.01 0.00 0.02 0.01 0.02 0.01 0.01 0.00 0.02 0.00 0.00
0.00 0.00 0.00 0.00 0.00 0.00 0.00 0.00 0.00 0.00 0.00 0.01 0.01 0.02 0.01 0.08 0.03 0.04 0.03 0.00 0.02 0.02 0.01 0.01 0.00 0.02 0.08 0.07 0.17 0.21 0.08 0.01 0.00 0.01 0.01 0.01 0.00 0.00 0.01 0.00 0.02 0.03 0.03 0.00
0.00 0.00 0.00 0.00 0.00 0.00 0.00 0.00 0.00 0.00 0.02 0.01 0.00 0.01 0.00 0.00 0.00 0.11 0.18 0.05 0.01 0.02 0.00 0.04 0.02 0.03 0.03 0.24 0.56 0.25 0.12 0.03 0.00 0.01 0.02 0.00 0.00 0.01 0.02 0.07 0.04 0.00 0.01 0.00
0.00 0.00 0.00 0.00 0.00 0.00 0.00 0.00 0.00 0.00 0.00 0.00 0.00 0.02 0.03 0.00 0.01 0.09 0.36 0.14 0.04 0.02 0.05 0.06 0.03 0.01 0.00 0.02 0.33 0.11 0.11 0.10 0.02 0.02 0.01 0.01 0.00 0.03 0.04 0.11 0.05 0.01 0.02 0.01
0.00 0.00 0.00 0.00 0.00 0.00 0.00 0.00 0.00 0.00 0.00 0.00 0.00 0.02 0.04 0.00 0.01 0.03 0.00 0.02 0.04 0.03 0.07 0.06 0.06 0.03 0.00 0.00 0.05 0.05 0.15 0.08 0.02 0.01 0.01 0.01 0.04 0.04 0.01 0.02 0.01 0.00 0.01 0.02
0.00 0.00 0.00 0.00 0.00 0.00 0.00 0.00 0.00 0.00 0.00 0.00 0.00 0.01 0.01 0.00 0.01 0.01 0.00 0.03 0.02 0.02 0.03 0.03 0.03 0.02 0.01 0.01 0.01 0.17 0.50 0.23 0.09 0.01 0.01 0.01 0.00 0.01 0.00 0.00 0.02 0.01 0.01 0.05
0.00 0.00 0.00 0.00 0.00 0.00 0.00 0.00 0.00 0.00 0.00 0.00 0.00 0.00 0.00 0.01 0.01 0.01 0.00 0.00 0.00 0.01 0.02 0.03 0.03 0.03 0.02 0.04 0.04 0.07 0.14 0.18 0.13 0.06 0.03 0.00 0.00 0.00 0.00 0.01 0.02 0.05 0.02 0.09
0.00 0.00 0.00 0.00 0.00 0.00 0.00 0.00 0.00 0.00 0.00 0.00 0.00 0.03 0.01 0.03 0.05 0.02 0.00 0.00 0.00 0.00 0.01 0.01 0.02 0.03 0.03 0.05 0.08 0.03 0.11 0.15 0.16 0.09 0.08 0.02 0.00 0.00 0.01 0.00 0.03 0.07 0.10 0.08
0.00 0.00 0.00 0.00 0.00 0.00 0.00 0.00 0.00 0.00 0.00 0.00 0.00 0.00 0.01 0.00 0.00 0.02 0.00 0.02 0.02 0.01 0.00 0.00 0.02 0.02 0.03 0.05 0.02 0.04 0.03 0.06 0.13 0.03 0.13 0.05 0.01 0.00 0.01 0.00 0.01 0.03 0.10 0.15
0.00 0.00 0.00 0.00 0.00 0.00 0.00 0.00 0.00 0.00 0.00 0.00 0.00 0.00 0.00 0.00 0.00 0.01 0.00 0.01 0.01 0.00 0.00 0.00 0.00 0.00 0.03 0.02 0.02 0.04 0.04 0.04 0.04 0.09 0.07 0.12 0.04 0.06 0.01 0.02 0.01 0.03 0.07 0.15
0.00 0.00 0.00 0.00 0.00 0.00 0.00 0.00 0.00 0.00 0.00 0.00 0.01 0.00 0.00 0.00 0.00 0.00 0.00 0.00 0.00 0.00 0.00 0.00 0.00 0.00 0.03 0.04 0.04 0.04 0.04 0.07 0.10 0.25 0.50 0.38 0.42 0.47 0.35 0.34 0.34 0.23 0.21 0.09
0.00 0.00 0.00 0.00 0.00 0.00 0.00 0.00 0.00 0.00 0.00 0.00 0.00 0.01 0.00 0.00 0.00 0.00 0.00 0.00 0.00 0.00 0.00 0.00 0.00 0.00 0.00 0.01 0.00 0.01 0.02 0.07 0.17 0.39 0.84 0.98 0.83 0.84 0.96 1.31 1.26 0.77 0.45 0.20
0.00 0.00 0.00 0.00 0.00 0.00 0.00 0.00 0.00 0.00 0.00 0.00 0.00 0.00 0.01 0.00 0.00 0.00 0.00 0.00 0.00 0.00 0.00 0.00 0.00 0.00 0.00 0.00 0.00 0.00 0.01 0.01 0.06 0.26 0.43 0.56 0.81 0.83 0.73 0.74 1.09 1.26 0.79 0.46
0.00 0.00 0.00 0.00 0.00 0.00 0.00 0.00 0.00 0.00 0.00 0.00 0.00 0.00 0.01 0.00 0.00 0.00 0.00 0.00 0.00 0.00 0.00 0.00 0.00 0.00 0.00 0.00 0.00 0.00 0.02 0.07 0.07 0.19 0.31 0.45 0.67 1.64 1.96 0.89 0.71 0.85 0.84 0.67
0.00 0.00 0.00 0.00 0.00 0.00 0.00 0.00 0.00 0.00 0.01 0.00 0.00 0.00 0.00 0.00 0.00 0.00 0.00 0.00 0.00 0.00 0.00 0.00 0.00 0.00 0.00 0.00 0.00 0.00 0.01 0.03 0.09 0.23 0.20 0.30 0.32 1.01 1.68 1.18 0.83 0.89 0.79 0.74
0.00 0.00 0.00 0.00 0.00 0.00 0.00 0.00 0.00 0.01 0.00 0.00 0.00 0.00 0.00 0.00 0.00 0.00 0.01 0.01 0.07 0.14 0.01 0.00 0.00 0.00 0.00 0.00 0.00 0.00 0.00 0.00 0.00 0.06 0.14 0.18 0.27 0.64 1.45 2.01 1.39 0.87 0.98 0.85
0.00 0.00 0.00 0.00 0.00 0.00 0.00 0.00 0.00 0.00 0.00 0.00 0.00 0.00 0.00 0.00 0.01 0.03 0.05 0.06 0.09 0.24 0.02 0.00 0.00 0.00 0.00 0.00 0.00 0.00 0.00 0.00 0.00 0.00 0.00 0.00 0.02 0.09 0.24 0.60 1.18 1.28 1.33 1.18
0.00 0.00 0.00 0.00 0.00 0.00 0.00 0.00 0.00 0.01 0.01 0.00 0.00 0.00 0.00 0.00 0.01 0.01 0.26 0.40 0.03 0.05 0.02 0.00 0.00 0.00 0.00 0.00 0.00 0.00 0.00 0.00 0.00 0.01 0.00 0.00 0.00 0.00 0.03 0.09 0.38 1.16 1.06 0.83
0.00 0.00 0.00 0.00 0.01 0.00 0.00 0.00 0.00 0.01 0.01 0.03 0.03 0.01 0.00 0.00 0.01 0.03 0.03 0.17 0.24 0.05 0.03 0.00 0.00 0.00 0.00 0.00 0.00 0.01 0.02 0.01 0.02 0.02 0.02 0.03 0.01 0.00 0.02 0.03 0.13 0.29 0.31 0.27
0.06 0.02 0.02 0.01 0.04 0.03 0.01 0.00 0.00 0.00 0.01 0.04 0.14 0.09 0.01 0.00 0.00 0.00 0.00 0.02 0.02 0.01 0.00 0.00 0.00 0.00 0.00 0.00 0.00 0.01 0.02 0.01 0.01 0.00 0.00 0.00 0.01 0.01 0.01 0.01 0.02 0.07 0.12 0.09
0.18 0.16 0.20 0.10 0.01 0.02 0.03 0.01 0.01 0.01 0.01 0.01 0.05 0.15 0.15 0.01 0.00 0.00 0.01 0.01 0.02 0.03 0.11 0.01 0.00 0.01 0.00 0.00 0.00 0.00 0.01 0.00 0.00 0.00 0.00 0.00 0.01 0.01 0.01 0.01 0.01 0.02 0.03 0.03
0.07 0.15 0.13 0.14 0.09 0.04 0.04 0.07 0.09 0.06 0.05 0.07 0.05 0.00 0.00 0.00 0.00 0.00 0.01 0.04 0.02 0.00 0.00 0.02 0.04 0.02 0.01 0.00 0.00 0.00 0.01 0.01 0.00 0.00 0.00 0.00 0.01 0.01 0.00 0.00 0.00 0.00 0.01 0.02
0.01 0.04 0.04 0.04 0.08 0.12 0.05 0.13 0.14 0.37 0.29 0.25 0.25 0.20 0.09 0.01 0.00 0.00 0.00 0.02 0.01 0.00 0.02 0.03 0.04 0.04 0.03 0.00 0.00 0.00 0.02 0.01 0.00 0.01 0.01 0.01 0.00 0.00 0.00 0.00 0.00 0.01 0.01 0.01